QPF
0.02 0.01 0.01 0.01 0.02 0.01 0.01 0.01 0.01 0.01 0.01 0.01 0.01 0.02 0.03 0.04 0.05 0.07 0.06 0.05 0.04 0.04 0.04 0.05 0.05 0.05 0.05 0.07 0.08 0.08 0.09 0.13 0.19 0.25 0.24 0.19 0.15 0.10 0.09 0.12 0.12 0.11 0.11 0.13
0.02 0.01 0.01 0.00 0.01 0.01 0.01 0.01 0.02 0.02 0.01 0.01 0.01 0.02 0.03 0.03 0.05 0.09 0.07 0.05 0.05 0.05 0.05 0.05 0.05 0.04 0.04 0.07 0.08 0.08 0.07 0.09 0.13 0.16 0.17 0.17 0.13 0.10 0.08 0.04 0.04 0.07 0.08 0.09
0.01 0.00 0.00 0.00 0.00 0.01 0.01 0.01 0.01 0.01 0.01 0.02 0.01 0.02 0.03 0.03 0.04 0.05 0.08 0.08 0.06 0.05 0.04 0.05 0.04 0.03 0.04 0.06 0.09 0.10 0.09 0.11 0.13 0.13 0.12 0.12 0.12 0.09 0.07 0.06 0.04 0.04 0.06 0.06
0.01 0.00 0.00 0.00 0.00 0.01 0.01 0.01 0.01 0.01 0.02 0.02 0.02 0.03 0.03 0.03 0.03 0.03 0.04 0.06 0.05 0.04 0.03 0.03 0.03 0.03 0.04 0.05 0.08 0.11 0.11 0.11 0.14 0.16 0.14 0.09 0.08 0.08 0.06 0.06 0.05 0.05 0.05 0.07
0.01 0.00 0.00 0.00 0.00 0.00 0.00 0.00 0.01 0.01 0.01 0.01 0.02 0.03 0.03 0.02 0.02 0.03 0.03 0.03 0.04 0.03 0.02 0.02 0.03 0.03 0.04 0.05 0.07 0.10 0.11 0.11 0.11 0.15 0.15 0.12 0.08 0.06 0.04 0.03 0.03 0.03 0.04 0.06
0.01 0.00 0.00 0.00 0.00 0.00 0.00 0.00 0.01 0.01 0.01 0.01 0.01 0.02 0.01 0.01 0.02 0.02 0.02 0.02 0.02 0.02 0.02 0.02 0.03 0.03 0.04 0.05 0.06 0.08 0.10 0.10 0.10 0.11 0.11 0.10 0.08 0.05 0.03 0.02 0.01 0.01 0.01 0.03
0.01 0.00 0.00 0.00 0.00 0.00 0.00 0.00 0.01 0.01 0.01 0.00 0.01 0.01 0.01 0.01 0.01 0.01 0.02 0.02 0.02 0.01 0.01 0.02 0.03 0.03 0.03 0.04 0.05 0.07 0.07 0.08 0.08 0.08 0.07 0.07 0.06 0.05 0.04 0.02 0.01 0.00 0.00 0.01
0.00 0.00 0.00 0.00 0.00 0.00 0.00 0.00 0.00 0.00 0.00 0.00 0.00 0.00 0.00 0.00 0.01 0.01 0.01 0.01 0.01 0.02 0.01 0.01 0.01 0.01 0.01 0.02 0.03 0.05 0.05 0.05 0.06 0.07 0.07 0.07 0.06 0.05 0.04 0.03 0.02 0.01 0.01 0.00
0.00 0.00 0.00 0.00 0.00 0.00 0.00 0.00 0.00 0.00 0.00 0.00 0.00 0.00 0.00 0.00 0.00 0.00 0.00 0.00 0.00 0.01 0.01 0.01 0.01 0.01 0.00 0.01 0.01 0.02 0.03 0.04 0.04 0.04 0.04 0.04 0.04 0.03 0.02 0.02 0.01 0.01 0.01 0.00
0.00 0.00 0.00 0.00 0.00 0.00 0.00 0.00 0.00 0.00 0.00 0.00 0.00 0.00 0.00 0.00 0.00 0.00 0.00 0.00 0.00 0.00 0.00 0.00 0.01 0.01 0.01 0.01 0.01 0.01 0.01 0.01 0.02 0.01 0.01 0.01 0.01 0.01 0.01 0.00 0.00 0.00 0.00 0.00
0.00 0.00 0.00 0.00 0.00 0.00 0.00 0.00 0.00 0.00 0.00 0.01 0.00 0.00 0.00 0.00 0.00 0.00 0.00 0.00 0.00 0.00 0.00 0.00 0.00 0.00 0.00 0.00 0.01 0.00 0.00 0.00 0.01 0.01 0.01 0.00 0.00 0.00 0.00 0.00 0.00 0.00 0.00 0.00
0.00 0.00 0.00 0.00 0.00 0.00 0.00 0.00 0.00 0.00 0.00 0.00 0.00 0.00 0.00 0.00 0.00 0.00 0.00 0.00 0.00 0.00 0.00 0.00 0.00 0.00 0.00 0.00 0.00 0.00 0.00 0.00 0.00 0.00 0.00 0.00 0.00 0.00 0.00 0.00 0.00 0.00 0.00 0.00
0.00 0.01 0.01 0.00 0.00 0.00 0.00 0.00 0.00 0.00 0.00 0.00 0.00 0.00 0.00 0.00 0.00 0.00 0.00 0.00 0.01 0.00 0.00 0.00 0.00 0.00 0.00 0.00 0.00 0.00 0.00 0.00 0.00 0.00 0.00 0.00 0.00 0.00 0.00 0.00 0.00 0.00 0.00 0.00
0.01 0.01 0.01 0.01 0.00 0.00 0.00 0.00 0.00 0.00 0.00 0.00 0.00 0.00 0.00 0.00 0.00 0.00 0.00 0.00 0.01 0.01 0.00 0.00 0.00 0.00 0.00 0.00 0.00 0.01 0.00 0.00 0.00 0.00 0.00 0.00 0.00 0.01 0.00 0.00 0.00 0.00 0.00 0.00
0.01 0.01 0.00 0.00 0.00 0.00 0.00 0.00 0.00 0.00 0.00 0.00 0.00 0.00 0.00 0.00 0.00 0.00 0.00 0.00 0.00 0.01 0.00 0.00 0.00 0.00 0.00 0.00 0.00 0.01 0.00 0.00 0.00 0.00 0.00 0.00 0.00 0.00 0.00 0.00 0.00 0.00 0.00 0.00
0.00 0.00 0.00 0.00 0.00 0.00 0.00 0.00 0.00 0.00 0.00 0.00 0.00 0.00 0.00 0.00 0.00 0.00 0.00 0.00 0.00 0.01 0.01 0.00 0.00 0.00 0.00 0.00 0.00 0.00 0.00 0.00 0.00 0.00 0.00 0.01 0.01 0.01 0.00 0.00 0.00 0.00 0.00 0.00
0.00 0.00 0.01 0.00 0.00 0.00 0.00 0.00 0.00 0.00 0.00 0.00 0.00 0.00 0.00 0.00 0.00 0.00 0.00 0.00 0.01 0.01 0.01 0.00 0.00 0.00 0.00 0.00 0.00 0.00 0.01 0.00 0.00 0.00 0.01 0.01 0.01 0.01 0.01 0.00 0.00 0.00 0.00 0.00
0.00 0.00 0.00 0.00 0.00 0.00 0.00 0.00 0.00 0.00 0.00 0.00 0.00 0.00 0.00 0.00 0.00 0.00 0.00 0.00 0.01 0.01 0.01 0.01 0.00 0.00 0.00 0.00 0.00 0.00 0.00 0.01 0.01 0.00 0.01 0.01 0.01 0.01 0.01 0.01 0.01 0.00 0.00 0.00
0.00 0.00 0.01 0.01 0.01 0.00 0.00 0.00 0.00 0.00 0.00 0.00 0.00 0.00 0.00 0.00 0.00 0.00 0.00 0.00 0.00 0.01 0.01 0.01 0.01 0.01 0.01 0.01 0.01 0.01 0.01 0.01 0.01 0.00 0.00 0.01 0.01 0.01 0.02 0.02 0.01 0.00 0.00 0.01
0.00 0.00 0.01 0.01 0.01 0.00 0.00 0.00 0.00 0.00 0.00 0.00 0.00 0.00 0.00 0.00 0.00 0.00 0.00 0.00 0.00 0.00 0.00 0.01 0.01 0.01 0.01 0.01 0.01 0.01 0.01 0.01 0.01 0.01 0.01 0.01 0.01 0.01 0.01 0.01 0.01 0.01 0.01 0.01
0.00 0.00 0.01 0.01 0.01 0.01 0.00 0.00 0.00 0.00 0.00 0.00 0.00 0.00 0.00 0.00 0.00 0.00 0.00 0.00 0.00 0.00 0.00 0.00 0.00 0.00 0.01 0.01 0.01 0.01 0.01 0.01 0.01 0.01 0.00 0.00 0.01 0.01 0.00 0.00 0.01 0.02 0.01 0.01
0.00 0.00 0.00 0.01 0.02 0.01 0.01 0.00 0.01 0.01 0.01 0.00 0.01 0.01 0.01 0.01 0.00 0.00 0.00 0.00 0.00 0.00 0.00 0.00 0.00 0.00 0.00 0.00 0.00 0.00 0.00 0.01 0.01 0.00 0.00 0.00 0.01 0.01 0.01 0.00 0.01 0.02 0.01 0.01
0.00 0.00 0.01 0.01 0.01 0.01 0.01 0.01 0.01 0.01 0.00 0.00 0.01 0.01 0.00 0.00 0.00 0.00 0.00 0.00 0.00 0.00 0.00 0.00 0.00 0.00 0.00 0.00 0.00 0.00 0.00 0.00 0.00 0.00 0.00 0.00 0.00 0.01 0.01 0.01 0.01 0.02 0.02 0.01
0.00 0.00 0.00 0.01 0.01 0.00 0.00 0.00 0.00 0.00 0.00 0.00 0.00 0.00 0.00 0.00 0.00 0.00 0.00 0.00 0.00 0.00 0.00 0.00 0.00 0.00 0.00 0.00 0.00 0.00 0.00 0.00 0.00 0.00 0.00 0.00 0.00 0.01 0.01 0.01 0.01 0.02 0.01 0.01
0.00 0.00 0.00 0.00 0.00 0.00 0.00 0.00 0.00 0.00 0.00 0.00 0.00 0.00 0.00 0.00 0.00 0.00 0.00 0.00 0.00 0.00 0.00 0.00 0.00 0.00 0.00 0.00 0.00 0.00 0.00 0.00 0.00 0.00 0.00 0.01 0.01 0.01 0.01 0.01 0.01 0.01 0.01 0.01
0.00 0.00 0.00 0.00 0.00 0.00 0.00 0.00 0.00 0.00 0.00 0.00 0.00 0.00 0.00 0.00 0.00 0.00 0.00 0.00 0.00 0.00 0.00 0.00 0.00 0.00 0.00 0.00 0.00 0.00 0.00 0.00 0.00 0.00 0.00 0.01 0.01 0.01 0.01 0.01 0.01 0.01 0.01 0.01
MSLP
1018.10 1017.96 1017.68 1017.29 1016.82 1016.33 1015.84 1015.38 1014.97 1014.58 1014.20 1013.81 1013.39 1012.95 1012.51 1012.08 1011.71 1011.44 1011.30 1011.30 1011.46 1011.76 1012.18 1012.70 1013.28 1013.89 1014.50 1015.10 1015.68 1016.23 1016.75 1017.24 1017.70 1018.11 1018.48 1018.81 1019.09 1019.33 1019.54 1019.72 1019.89 1020.06 1020.25 1020.45
1017.49 1017.26 1016.89 1016.42 1015.90 1015.38 1014.91 1014.50 1014.15 1013.84 1013.55 1013.24 1012.90 1012.52 1012.12 1011.74 1011.43 1011.21 1011.14 1011.22 1011.46 1011.83 1012.33 1012.89 1013.50 1014.11 1014.71 1015.29 1015.85 1016.37 1016.88 1017.35 1017.81 1018.22 1018.60 1018.92 1019.18 1019.40 1019.57 1019.71 1019.85 1020.01 1020.19 1020.41
1016.85 1016.53 1016.09 1015.56 1015.01 1014.49 1014.05 1013.70 1013.44 1013.21 1013.00 1012.76 1012.47 1012.13 1011.77 1011.41 1011.12 1010.94 1010.92 1011.06 1011.36 1011.81 1012.37 1012.98 1013.62 1014.25 1014.85 1015.42 1015.96 1016.48 1016.97 1017.45 1017.91 1018.33 1018.71 1019.03 1019.28 1019.47 1019.61 1019.72 1019.83 1019.96 1020.13 1020.35
1016.31 1015.92 1015.42 1014.85 1014.30 1013.81 1013.42 1013.14 1012.95 1012.80 1012.65 1012.45 1012.18 1011.85 1011.47 1011.10 1010.81 1010.64 1010.63 1010.81 1011.17 1011.67 1012.29 1012.95 1013.63 1014.28 1014.90 1015.47 1016.00 1016.51 1017.01 1017.50 1017.97 1018.40 1018.79 1019.11 1019.36 1019.53 1019.65 1019.73 1019.80 1019.91 1020.05 1020.25
1015.98 1015.54 1015.00 1014.43 1013.89 1013.44 1013.11 1012.89 1012.77 1012.67 1012.55 1012.35 1012.07 1011.69 1011.27 1010.86 1010.52 1010.33 1010.32 1010.51 1010.90 1011.45 1012.11 1012.82 1013.54 1014.22 1014.85 1015.42 1015.96 1016.47 1016.97 1017.46 1017.94 1018.39 1018.80 1019.13 1019.38 1019.54 1019.64 1019.70 1019.75 1019.83 1019.94 1020.12
1015.92 1015.44 1014.88 1014.31 1013.81 1013.41 1013.13 1012.98 1012.89 1012.82 1012.70 1012.48 1012.14 1011.70 1011.20 1010.71 1010.32 1010.07 1010.04 1010.23 1010.63 1011.21 1011.91 1012.65 1013.40 1014.10 1014.74 1015.32 1015.85 1016.36 1016.86 1017.35 1017.84 1018.30 1018.71 1019.05 1019.32 1019.49 1019.59 1019.64 1019.67 1019.72 1019.81 1019.95
1016.10 1015.59 1015.03 1014.49 1014.02 1013.67 1013.45 1013.33 1013.28 1013.21 1013.06 1012.79 1012.38 1011.86 1011.28 1010.71 1010.24 1009.94 1009.87 1010.05 1010.45 1011.04 1011.75 1012.52 1013.28 1013.99 1014.64 1015.21 1015.73 1016.22 1016.70 1017.18 1017.66 1018.12 1018.54 1018.90 1019.18 1019.37 1019.49 1019.54 1019.57 1019.61 1019.67 1019.79
1016.43 1015.92 1015.37 1014.85 1014.43 1014.13 1013.95 1013.86 1013.81 1013.73 1013.55 1013.22 1012.75 1012.15 1011.49 1010.85 1010.32 1009.98 1009.88 1010.03 1010.42 1011.01 1011.73 1012.50 1013.26 1013.97 1014.59 1015.14 1015.64 1016.09 1016.54 1016.99 1017.45 1017.90 1018.32 1018.70 1018.99 1019.21 1019.35 1019.42 1019.47 1019.50 1019.56 1019.65
1016.82 1016.30 1015.78 1015.30 1014.92 1014.66 1014.51 1014.44 1014.39 1014.28 1014.07 1013.70 1013.18 1012.53 1011.83 1011.15 1010.58 1010.21 1010.09 1010.23 1010.61 1011.18 1011.89 1012.64 1013.39 1014.07 1014.66 1015.17 1015.62 1016.03 1016.43 1016.84 1017.26 1017.69 1018.10 1018.48 1018.80 1019.04 1019.21 1019.32 1019.38 1019.44 1019.49 1019.58
1017.14 1016.65 1016.16 1015.73 1015.38 1015.16 1015.02 1014.96 1014.89 1014.76 1014.52 1014.13 1013.59 1012.93 1012.22 1011.55 1010.99 1010.63 1010.50 1010.63 1011.00 1011.55 1012.23 1012.95 1013.66 1014.30 1014.85 1015.32 1015.72 1016.07 1016.42 1016.77 1017.15 1017.54 1017.93 1018.30 1018.63 1018.90 1019.10 1019.25 1019.35 1019.42 1019.50 1019.58
1017.34 1016.89 1016.45 1016.06 1015.76 1015.54 1015.41 1015.33 1015.24 1015.09 1014.83 1014.44 1013.91 1013.29 1012.62 1011.99 1011.48 1011.15 1011.05 1011.19 1011.54 1012.07 1012.71 1013.39 1014.04 1014.64 1015.14 1015.56 1015.91 1016.21 1016.51 1016.81 1017.14 1017.49 1017.85 1018.21 1018.54 1018.83 1019.06 1019.24 1019.37 1019.48 1019.57 1019.66
1017.43 1017.04 1016.66 1016.32 1016.03 1015.82 1015.67 1015.55 1015.42 1015.24 1014.97 1014.58 1014.09 1013.53 1012.94 1012.39 1011.96 1011.69 1011.63 1011.78 1012.13 1012.62 1013.22 1013.85 1014.46 1015.00 1015.47 1015.85 1016.16 1016.43 1016.69 1016.95 1017.24 1017.55 1017.88 1018.22 1018.54 1018.83 1019.09 1019.29 1019.46 1019.59 1019.70 1019.79
1017.45 1017.14 1016.82 1016.52 1016.25 1016.01 1015.81 1015.63 1015.44 1015.21 1014.91 1014.53 1014.09 1013.60 1013.11 1012.67 1012.33 1012.14 1012.13 1012.30 1012.64 1013.11 1013.66 1014.25 1014.81 1015.32 1015.76 1016.12 1016.42 1016.68 1016.91 1017.15 1017.41 1017.70 1018.00 1018.31 1018.62 1018.91 1019.17 1019.40 1019.59 1019.74 1019.85 1019.95
1017.49 1017.27 1017.01 1016.73 1016.44 1016.16 1015.88 1015.61 1015.33 1015.02 1014.68 1014.30 1013.89 1013.48 1013.09 1012.75 1012.52 1012.42 1012.47 1012.66 1013.00 1013.44 1013.95 1014.49 1015.03 1015.52 1015.95 1016.31 1016.62 1016.89 1017.14 1017.38 1017.63 1017.89 1018.17 1018.47 1018.76 1019.04 1019.29 1019.53 1019.72 1019.88 1020.00 1020.09
1017.63 1017.48 1017.26 1016.98 1016.65 1016.29 1015.91 1015.51 1015.10 1014.70 1014.30 1013.90 1013.52 1013.16 1012.86 1012.63 1012.50 1012.48 1012.58 1012.81 1013.14 1013.56 1014.05 1014.56 1015.07 1015.55 1015.99 1016.38 1016.73 1017.03 1017.31 1017.57 1017.83 1018.09 1018.36 1018.63 1018.90 1019.17 1019.42 1019.64 1019.84 1019.99 1020.11 1020.19
1017.90 1017.80 1017.59 1017.28 1016.88 1016.41 1015.89 1015.35 1014.81 1014.29 1013.80 1013.37 1012.99 1012.69 1012.46 1012.33 1012.28 1012.34 1012.50 1012.75 1013.09 1013.49 1013.95 1014.44 1014.94 1015.43 1015.89 1016.33 1016.72 1017.07 1017.40 1017.69 1017.97 1018.24 1018.50 1018.76 1019.02 1019.27 1019.50 1019.72 1019.90 1020.05 1020.16 1020.22
1018.28 1018.18 1017.95 1017.58 1017.09 1016.49 1015.82 1015.13 1014.44 1013.80 1013.23 1012.76 1012.38 1012.12 1011.96 1011.90 1011.94 1012.06 1012.27 1012.55 1012.89 1013.29 1013.73 1014.21 1014.70 1015.20 1015.69 1016.16 1016.60 1017.01 1017.38 1017.72 1018.02 1018.31 1018.57 1018.82 1019.07 1019.30 1019.53 1019.73 1019.91 1020.05 1020.14 1020.19
1018.70 1018.56 1018.27 1017.81 1017.20 1016.48 1015.67 1014.83 1014.02 1013.28 1012.64 1012.13 1011.76 1011.53 1011.43 1011.44 1011.55 1011.74 1011.99 1012.30 1012.65 1013.05 1013.48 1013.94 1014.43 1014.93 1015.44 1015.94 1016.42 1016.87 1017.28 1017.65 1017.98 1018.28 1018.55 1018.80 1019.04 1019.26 1019.47 1019.67 1019.84 1019.97 1020.06 1020.08
1019.05 1018.83 1018.45 1017.88 1017.16 1016.32 1015.39 1014.45 1013.55 1012.74 1012.06 1011.54 1011.19 1011.01 1010.97 1011.05 1011.22 1011.47 1011.77 1012.10 1012.46 1012.85 1013.27 1013.72 1014.20 1014.69 1015.20 1015.71 1016.21 1016.68 1017.12 1017.51 1017.85 1018.16 1018.44 1018.69 1018.92 1019.14 1019.35 1019.54 1019.71 1019.84 1019.91 1019.93
1019.24 1018.91 1018.41 1017.74 1016.92 1015.98 1014.99 1013.99 1013.05 1012.22 1011.55 1011.06 1010.75 1010.61 1010.63 1010.78 1011.02 1011.31 1011.65 1012.00 1012.37 1012.76 1013.16 1013.59 1014.04 1014.52 1015.02 1015.52 1016.01 1016.49 1016.92 1017.32 1017.67 1017.98 1018.26 1018.51 1018.75 1018.97 1019.18 1019.37 1019.53 1019.65 1019.72 1019.72
1019.18 1018.73 1018.11 1017.35 1016.46 1015.49 1014.47 1013.47 1012.55 1011.76 1011.14 1010.70 1010.45 1010.38 1010.46 1010.66 1010.95 1011.28 1011.64 1012.01 1012.39 1012.76 1013.15 1013.55 1013.98 1014.43 1014.90 1015.37 1015.85 1016.30 1016.73 1017.12 1017.47 1017.77 1018.05 1018.30 1018.54 1018.76 1018.97 1019.15 1019.31 1019.43 1019.48 1019.47
1018.85 1018.27 1017.57 1016.74 1015.83 1014.86 1013.87 1012.93 1012.09 1011.38 1010.83 1010.47 1010.30 1010.29 1010.42 1010.67 1010.99 1011.34 1011.72 1012.09 1012.46 1012.83 1013.19 1013.57 1013.97 1014.39 1014.82 1015.27 1015.71 1016.14 1016.55 1016.92 1017.26 1017.56 1017.84 1018.09 1018.32 1018.54 1018.74 1018.92 1019.07 1019.17 1019.21 1019.17
1018.25 1017.57 1016.80 1015.96 1015.06 1014.14 1013.24 1012.41 1011.67 1011.07 1010.63 1010.36 1010.25 1010.30 1010.47 1010.74 1011.06 1011.43 1011.80 1012.17 1012.52 1012.88 1013.23 1013.59 1013.96 1014.36 1014.76 1015.18 1015.60 1016.01 1016.39 1016.75 1017.07 1017.37 1017.64 1017.89 1018.11 1018.32 1018.51 1018.67 1018.79 1018.87 1018.88 1018.82
1017.42 1016.68 1015.89 1015.06 1014.22 1013.39 1012.61 1011.90 1011.30 1010.83 1010.49 1010.30 1010.25 1010.33 1010.52 1010.78 1011.10 1011.45 1011.80 1012.16 1012.51 1012.85 1013.19 1013.55 1013.91 1014.29 1014.68 1015.08 1015.48 1015.88 1016.25 1016.60 1016.91 1017.21 1017.47 1017.71 1017.92 1018.11 1018.28 1018.41 1018.49 1018.53 1018.49 1018.40
1016.43 1015.66 1014.88 1014.10 1013.35 1012.64 1012.00 1011.43 1010.96 1010.61 1010.36 1010.24 1010.23 1010.33 1010.50 1010.75 1011.04 1011.36 1011.69 1012.03 1012.37 1012.71 1013.06 1013.41 1013.79 1014.17 1014.56 1014.96 1015.36 1015.74 1016.11 1016.46 1016.77 1017.06 1017.32 1017.54 1017.74 1017.90 1018.03 1018.11 1018.15 1018.13 1018.05 1017.90
1015.33 1014.56 1013.83 1013.13 1012.49 1011.90 1011.39 1010.96 1010.62 1010.36 1010.19 1010.12 1010.13 1010.21 1010.37 1010.58 1010.84 1011.13 1011.44 1011.77 1012.11 1012.46 1012.83 1013.21 1013.60 1014.00 1014.41 1014.82 1015.22 1015.61 1015.98 1016.33 1016.64 1016.92 1017.17 1017.37 1017.54 1017.67 1017.75 1017.78 1017.75 1017.67 1017.53 1017.33
Thickness
5567 5560 5557 5561 5564 5566 5564 5564 5564 5570 5579 5577 5577 5582 5591 5596 5595 5597 5600 5602 5604 5607 5610 5611 5613 5615 5617 5619 5621 5622 5623 5624 5625 5625 5623 5623 5623 5624 5625 5625 5625 5625 5624 5624
5559 5558 5565 5567 5567 5566 5564 5562 5563 5570 5576 5575 5574 5579 5587 5592 5595 5597 5598 5600 5602 5602 5604 5606 5608 5610 5612 5614 5615 5616 5618 5619 5620 5621 5619 5619 5618 5617 5617 5617 5617 5617 5616 5615
5560 5563 5567 5566 5564 5564 5564 5563 5564 5566 5570 5573 5572 5575 5582 5590 5594 5595 5597 5599 5600 5602 5602 5603 5604 5605 5607 5608 5610 5613 5613 5613 5614 5615 5614 5612 5610 5609 5609 5608 5608 5608 5608 5607
5560 5565 5565 5563 5563 5562 5559 5567 5567 5566 5560 5556 5564 5557 5577 5583 5588 5591 5594 5595 5596 5598 5600 5600 5601 5601 5601 5604 5606 5608 5607 5607 5608 5608 5608 5607 5605 5603 5602 5602 5601 5600 5600 5598
5559 5563 5562 5561 5565 5564 5562 5567 5565 5564 5561 5555 5557 5553 5569 5579 5582 5588 5592 5594 5594 5596 5597 5598 5598 5599 5599 5599 5600 5601 5601 5601 5601 5601 5601 5600 5599 5597 5595 5594 5592 5591 5590 5590
5560 5563 5563 5563 5566 5565 5564 5563 5561 5553 5549 5551 5558 5551 5563 5573 5583 5590 5592 5593 5594 5594 5595 5595 5595 5595 5594 5593 5593 5593 5594 5595 5594 5594 5593 5593 5591 5590 5587 5585 5583 5582 5582 5580
5554 5559 5563 5564 5562 5562 5559 5550 5542 5543 5536 5547 5558 5554 5565 5583 5589 5591 5592 5593 5594 5593 5592 5592 5591 5590 5590 5588 5587 5587 5588 5588 5588 5587 5586 5585 5584 5582 5580 5578 5575 5573 5572 5572
5547 5548 5560 5561 5560 5556 5554 5552 5541 5541 5538 5543 5553 5554 5574 5587 5588 5590 5592 5591 5590 5589 5589 5590 5589 5587 5586 5584 5582 5582 5582 5582 5581 5580 5579 5578 5576 5574 5572 5570 5568 5566 5564 5564
5546 5549 5559 5561 5560 5558 5555 5547 5548 5537 5537 5538 5547 5559 5575 5586 5587 5587 5587 5586 5586 5585 5585 5585 5584 5582 5580 5578 5577 5577 5576 5576 5575 5573 5571 5569 5568 5566 5563 5562 5560 5558 5557 5555
5553 5546 5553 5556 5557 5556 5553 5549 5535 5536 5539 5540 5548 5555 5565 5579 5582 5584 5583 5583 5582 5581 5579 5579 5577 5575 5574 5573 5572 5571 5570 5569 5567 5565 5563 5562 5559 5557 5555 5553 5550 5548 5547 5545
5553 5544 5545 5548 5550 5551 5549 5548 5541 5531 5530 5536 5539 5558 5576 5578 5581 5580 5580 5579 5578 5576 5574 5572 5571 5569 5568 5566 5565 5563 5562 5560 5558 5557 5555 5553 5550 5548 5545 5543 5541 5539 5537 5535
5549 5536 5532 5543 5550 5551 5549 5548 5540 5536 5535 5528 5530 5552 5579 5577 5578 5578 5577 5575 5573 5572 5570 5567 5565 5562 5560 5559 5557 5555 5554 5552 5551 5549 5546 5543 5541 5538 5535 5533 5531 5529 5527 5525
5547 5537 5534 5542 5545 5544 5544 5545 5542 5535 5528 5519 5524 5553 5574 5572 5573 5573 5571 5569 5568 5566 5564 5560 5558 5556 5554 5552 5550 5548 5546 5544 5542 5539 5536 5533 5530 5528 5526 5523 5521 5519 5517 5515
5544 5533 5532 5540 5545 5541 5539 5540 5539 5532 5521 5523 5532 5551 5565 5566 5565 5565 5564 5562 5560 5559 5558 5554 5551 5549 5548 5545 5543 5541 5538 5536 5534 5530 5528 5525 5522 5519 5516 5514 5512 5509 5507 5504
5537 5528 5528 5531 5535 5534 5535 5538 5536 5531 5530 5530 5542 5546 5559 5560 5559 5559 5558 5556 5554 5553 5551 5549 5546 5542 5540 5537 5535 5533 5531 5528 5526 5522 5519 5516 5513 5510 5507 5504 5501 5499 5496 5493
5526 5524 5526 5527 5533 5530 5532 5537 5534 5534 5535 5535 5540 5547 5558 5554 5552 5551 5550 5548 5548 5547 5545 5543 5540 5536 5533 5530 5528 5525 5523 5520 5517 5513 5510 5506 5503 5500 5496 5494 5491 5488 5485 5482
5517 5515 5515 5513 5520 5526 5532 5544 5540 5535 5536 5538 5539 5549 5549 5548 5546 5545 5543 5543 5541 5540 5538 5536 5533 5530 5527 5523 5521 5518 5515 5511 5507 5504 5500 5497 5493 5490 5487 5484 5480 5477 5474 5471
5513 5507 5499 5499 5511 5518 5543 5546 5542 5538 5538 5534 5536 5539 5540 5539 5537 5536 5535 5532 5531 5531 5530 5527 5524 5521 5519 5515 5512 5509 5505 5501 5497 5494 5490 5487 5483 5479 5476 5472 5469 5465 5462 5459
5508 5504 5493 5490 5494 5511 5530 5538 5535 5530 5529 5529 5528 5529 5527 5526 5526 5525 5526 5525 5524 5522 5521 5518 5516 5513 5509 5506 5502 5498 5494 5490 5486 5483 5480 5476 5473 5469 5465 5461 5458 5454 5451 5447
5495 5494 5488 5485 5494 5506 5526 5529 5528 5524 5518 5522 5518 5515 5513 5513 5508 5512 5516 5514 5513 5511 5509 5507 5504 5501 5498 5495 5491 5487 5483 5479 5476 5473 5470 5466 5462 5458 5455 5451 5448 5444 5440 5437
5481 5477 5477 5478 5482 5496 5513 5515 5517 5509 5510 5510 5508 5506 5503 5500 5499 5501 5501 5501 5501 5500 5498 5496 5493 5490 5487 5484 5480 5476 5472 5470 5467 5464 5460 5456 5452 5448 5445 5440 5437 5433 5429 5426
5477 5469 5466 5467 5471 5489 5506 5502 5499 5499 5498 5498 5497 5495 5493 5490 5490 5490 5490 5489 5488 5486 5485 5483 5480 5478 5475 5472 5469 5466 5462 5461 5457 5453 5449 5445 5441 5437 5434 5429 5425 5421 5417 5413
5470 5476 5471 5474 5486 5492 5490 5490 5490 5486 5485 5486 5484 5484 5482 5480 5479 5479 5479 5477 5475 5474 5472 5471 5468 5465 5463 5460 5457 5454 5453 5449 5445 5440 5436 5433 5429 5425 5422 5417 5413 5409 5404 5401
5464 5467 5463 5463 5473 5476 5476 5475 5476 5475 5474 5475 5473 5472 5471 5469 5469 5467 5466 5465 5463 5462 5460 5458 5455 5453 5451 5448 5445 5444 5441 5438 5433 5429 5425 5421 5417 5414 5410 5406 5402 5398 5393 5389
5457 5455 5451 5452 5459 5461 5466 5464 5464 5464 5463 5462 5461 5460 5459 5458 5457 5455 5453 5452 5451 5450 5447 5445 5443 5441 5440 5437 5434 5432 5430 5426 5422 5418 5414 5410 5406 5403 5399 5396 5392 5389 5385 5380
5443 5441 5439 5447 5451 5447 5452 5453 5451 5449 5450 5449 5448 5448 5447 5445 5444 5443 5441 5440 5438 5437 5435 5433 5431 5429 5427 5425 5423 5421 5418 5415 5410 5406 5402 5398 5395 5391 5388 5384 5382 5380 5376 5372